Regional Weather Roundup
Issued by NWS Albany, NY

Home | Current Version | Previous Version | Graphics & Text | Print | Product List | Glossary Off
Versions: 1 2 3 4 5 6 7 8 9 10 11 12 13 14 15 16 17 18 19 20 21 22 23 24 25 26 27 28 29 30 31 32 33 34 35 36 37 38 39 40 41 42 43 44 45 46 47 48 49 50

000
ASUS41 KALY 060410
RWRALY

NEW YORK STATE HOURLY WEATHER ROUNDUP
NATIONAL WEATHER SERVICE ALBANY NY
1200 AM EDT FRI MAY 06 2016

NOTE: "FAIR" INDICATES FEW OR NO CLOUDS BELOW 12,000 FEET WITH NO
SIGNIFICANT WEATHER AND/OR NO OBSTRUCTIONS TO VISIBILITY.

NYZ032-033-038>043-046>054-057>066-NYZ062>081-082-084-060500-
EAST


CITY           SKY/WX    TMP DP  RH WIND       PRES   REMARKS
ALBANY         CLOUDY    54  45  71 N5        29.70F
GLENS FALLS    CLOUDY    56  41  57 N9        29.71F
POUGHKEEPSIE   CLOUDY    55  44  66 NE5       29.69R
NEWBURGH       CLOUDY    52  46  82 E6        29.70R
MONTGOMERY     CLOUDY    54  46  74 NE3       29.68F
WHITE PLAINS   MOCLDY    51  43  74 NE7G17    29.68S
ISLIP          CLOUDY    49  42  77 NE10      29.66F
NEW YORK CITY  CLOUDY    53  47  79 NE16      29.68S
CENTRAL PARK   CLOUDY    53  43  68 NE9       29.71R
$$

NYZ005>009-017-018-044>046-055-056-060500-
CENTRAL


CITY           SKY/WX    TMP DP  RH WIND       PRES   REMARKS
FULTON         PTCLDY    53  42  66 NE7       29.76S
SYRACUSE       CLOUDY    54  44  69 N6        29.74F
ROME           CLOUDY    56  43  61 N5        29.75S
ELMIRA         CLOUDY    54  42  64 N7        29.74S
BINGHAMTON     CLOUDY    50  43  77 NE7       29.72S
MONTICELLO     CLOUDY    50  45  81 NW3       29.71S
$$

NYZ026>034-041>043-087-060500-
NORTH


CITY           SKY/WX    TMP DP  RH WIND       PRES   REMARKS
WATERTOWN      PTCLDY    46  40  79 NE3       29.78S
FORT DRUM      NOT AVBL
MASSENA        CLEAR     43  38  82 CALM      29.81S
SARANAC LAKE   CLEAR     42  36  79 CALM      29.76S
PLATTSBURGH    PTCLDY    51  39  63 NW6       29.77S
$$

NYZ001>004-010>016-019>021-085-060500-
WEST


CITY           SKY/WX    TMP DP  RH WIND       PRES   REMARKS
NIAGARA FALLS  PTCLDY    51  43  74 CALM      29.81F
BUFFALO        PTCLDY    50  43  77 N5        29.81S
DUNKIRK        PTCLDY    43  41  93 CALM      29.82S
JAMESTOWN      CLEAR     48  39  71 N8        29.81R
WELLSVILLE     CLOUDY    48  40  73 N3        29.78S
ROCHESTER      MOCLDY    50  42  74 N6        29.80S
PENN YAN       CLOUDY    52  42  69 N7        29.77S
$$

             KEY
       WCI = WIND CHILL INDEX
       VSB = VISIBILITY
       HX  = HEAT INDEX
$$



USA.gov is the U.S. government's official web portal to all federal, state and local government web resources and services.